RYR1AB EGKK-EIDW

Flight info

Callsign RYR1AB
Flight time 0h 41m
Altitude 30000
Route NOVMA L620 NIBDA N14 BIBPE DCT MEDOG DCT LANON L18 ABLIN ABLIN4L
Aircraft B738/M-SDE2E3FGHIRWXY/LB1

Departure

Time 2026-04-16 09:49
Airport London Gatwick Airport (EGKK)

Arrival

Time 2026-04-16 10:30
Airport Dublin Airport (EIDW)
Time Latitude Longitude Altitude Speed Heading
2026-04-16 09:21 51.16120 -0.18319 209 ft 0 kts 258°
2026-04-16 09:23 51.16120 -0.18318 204 ft 0 kts 258°
2026-04-16 09:28 51.16120 -0.18317 204 ft 0 kts 258°
2026-04-16 09:32 51.16120 -0.18316 204 ft 0 kts 258°
2026-04-16 09:34 51.16121 -0.18309 204 ft 4 kts 257°
2026-04-16 09:34 51.16129 -0.18268 214 ft 4 kts 248°
2026-04-16 09:34 51.16138 -0.18230 210 ft 4 kts 251°
2026-04-16 09:35 51.16151 -0.18199 208 ft 4 kts 204°
2026-04-16 09:35 51.16176 -0.18194 204 ft 4 kts 169°
2026-04-16 09:35 51.16184 -0.18196 208 ft 0 kts 168°
2026-04-16 09:38 51.16182 -0.18196 209 ft 1 kts 168°
2026-04-16 09:38 51.16155 -0.18187 215 ft 7 kts 168°
2026-04-16 09:38 51.16090 -0.18164 204 ft 12 kts 168°
2026-04-16 09:39 51.15996 -0.18130 208 ft 16 kts 166°
2026-04-16 09:39 51.15881 -0.18090 208 ft 17 kts 168°
2026-04-16 09:39 51.15786 -0.18058 207 ft 7 kts 167°
2026-04-16 09:39 51.15738 -0.18041 209 ft 7 kts 167°
2026-04-16 09:40 51.15701 -0.17998 208 ft 7 kts 108°
2026-04-16 09:40 51.15703 -0.17946 204 ft 8 kts 80°
2026-04-16 09:40 51.15717 -0.17838 204 ft 12 kts 77°
2026-04-16 09:40 51.15724 -0.17785 208 ft 0 kts 79°
2026-04-16 09:42 51.15710 -0.17904 212 ft 0 kts 79°
2026-04-16 09:42 51.15706 -0.17941 216 ft 381 kts 79°
2026-04-16 09:42 51.15667 -0.18198 204 ft 0 kts 79°
2026-04-16 09:42 51.15658 -0.18275 204 ft 0 kts 79°
2026-04-16 09:43 51.15658 -0.18265 204 ft 3 kts 90°
2026-04-16 09:43 51.15636 -0.18230 204 ft 5 kts 173°
2026-04-16 09:43 51.15599 -0.18256 213 ft 6 kts 211°
2026-04-16 09:44 51.15562 -0.18292 207 ft 7 kts 212°
2026-04-16 09:44 51.15511 -0.18316 204 ft 8 kts 177°
2026-04-16 09:44 51.15456 -0.18300 213 ft 8 kts 168°
2026-04-16 09:44 51.15369 -0.18270 211 ft 15 kts 167°
2026-04-16 09:45 51.15272 -0.18235 210 ft 14 kts 168°
2026-04-16 09:45 51.15206 -0.18152 205 ft 13 kts 86°
2026-04-16 09:45 51.15224 -0.18010 208 ft 13 kts 77°
2026-04-16 09:45 51.15244 -0.17866 206 ft 15 kts 78°
2026-04-16 09:46 51.15271 -0.17675 205 ft 21 kts 77°
2026-04-16 09:46 51.15302 -0.17426 213 ft 24 kts 82°
2026-04-16 09:46 51.15329 -0.17167 211 ft 23 kts 77°
2026-04-16 09:46 51.15362 -0.16921 213 ft 22 kts 78°
2026-04-16 09:47 51.15384 -0.16733 204 ft 12 kts 100°
2026-04-16 09:47 51.15317 -0.16675 200 ft 11 kts 167°
2026-04-16 09:47 51.15241 -0.16649 210 ft 11 kts 167°
2026-04-16 09:47 51.15167 -0.16630 204 ft 11 kts 187°
2026-04-16 09:48 51.15129 -0.16723 206 ft 11 kts 257°
2026-04-16 09:48 51.15088 -0.17024 209 ft 64 kts 257°
2026-04-16 09:48 51.14928 -0.18176 213 ft 146 kts 257°
2026-04-16 09:48 51.14709 -0.19953 782 ft 174 kts 258°
2026-04-16 09:49 51.14466 -0.21883 1879 ft 178 kts 255°
2026-04-16 09:49 51.14192 -0.23816 2788 ft 189 kts 256°
2026-04-16 09:49 51.13871 -0.26000 3100 ft 215 kts 255°
2026-04-16 09:49 51.13531 -0.28372 3743 ft 220 kts 257°
2026-04-16 09:50 51.13200 -0.30774 4023 ft 231 kts 257°
2026-04-16 09:50 51.12832 -0.33393 3998 ft 247 kts 256°
2026-04-16 09:50 51.12461 -0.36055 4019 ft 245 kts 256°
2026-04-16 09:50 51.12092 -0.38711 4349 ft 249 kts 257°
2026-04-16 09:51 51.11714 -0.41416 5407 ft 250 kts 257°
2026-04-16 09:51 51.11227 -0.44065 6474 ft 251 kts 247°
2026-04-16 09:51 51.10467 -0.46579 7427 ft 254 kts 243°
2026-04-16 09:51 51.09651 -0.49087 8383 ft 257 kts 243°
2026-04-16 09:52 51.08821 -0.51641 9325 ft 262 kts 243°
2026-04-16 09:52 51.08003 -0.54199 10285 ft 264 kts 244°
2026-04-16 09:52 51.07171 -0.56832 11165 ft 268 kts 244°
2026-04-16 09:52 51.06697 -0.59691 12018 ft 273 kts 271°
2026-04-16 09:53 51.07121 -0.62655 12926 ft 281 kts 290°
2026-04-16 09:53 51.08134 -0.65473 13239 ft 308 kts 301°
2026-04-16 09:53 51.09530 -0.68623 13461 ft 336 kts 303°
2026-04-16 09:53 51.12450 -0.74968 14310 ft 365 kts 303°
2026-04-16 09:54 51.15464 -0.81610 15725 ft 372 kts 302°
2026-04-16 09:54 51.18497 -0.88409 17157 ft 379 kts 302°
2026-04-16 09:54 51.21560 -0.95330 18519 ft 386 kts 301°
2026-04-16 09:54 51.24534 -1.02077 19613 ft 392 kts 301°
2026-04-16 09:55 51.27685 -1.09239 20811 ft 396 kts 301°
2026-04-16 09:55 51.30873 -1.16506 21909 ft 402 kts 301°
2026-04-16 09:55 51.34815 -1.23017 22975 ft 417 kts 319°
2026-04-16 09:55 51.40106 -1.27218 23923 ft 434 kts 335°
2026-04-16 09:56 51.45820 -1.30494 24789 ft 437 kts 334°
2026-04-16 09:56 51.51532 -1.33923 25648 ft 439 kts 333°
2026-04-16 09:56 51.57281 -1.37478 26455 ft 439 kts 328°
2026-04-16 09:56 51.61922 -1.43439 27246 ft 422 kts 304°
2026-04-16 09:57 51.64743 -1.51305 28507 ft 405 kts 292°
2026-04-16 09:57 51.67323 -1.59257 29803 ft 397 kts 293°
2026-04-16 09:57 51.69759 -1.67283 30132 ft 401 kts 286°
2026-04-16 09:57 51.70995 -1.76069 30128 ft 401 kts 274°
2026-04-16 09:58 51.71594 -1.84960 30120 ft 397 kts 276°
2026-04-16 09:58 51.73965 -2.01774 30128 ft 386 kts 281°
2026-04-16 09:59 51.76418 -2.18614 30147 ft 388 kts 280°
2026-04-16 09:59 51.78848 -2.35742 30157 ft 397 kts 280°
2026-04-16 10:00 51.81296 -2.53184 30121 ft 396 kts 279°
2026-04-16 10:00 51.83675 -2.70331 30117 ft 389 kts 279°
2026-04-16 10:01 51.87169 -2.95903 30048 ft 389 kts 279°
2026-04-16 10:01 51.89443 -3.12791 30065 ft 390 kts 279°
2026-04-16 10:02 51.91734 -3.30006 30085 ft 391 kts 278°
2026-04-16 10:02 51.94007 -3.47241 30084 ft 392 kts 279°
2026-04-16 10:03 51.96091 -3.55394 30101 ft 401 kts 294°
2026-04-16 10:03 51.99494 -3.62700 30142 ft 413 kts 306°
2026-04-16 10:03 52.07538 -3.76138 30075 ft 415 kts 307°
2026-04-16 10:04 52.15553 -3.89734 30077 ft 415 kts 306°
2026-04-16 10:04 52.23349 -4.03075 30101 ft 415 kts 306°
2026-04-16 10:05 52.31286 -4.16731 30068 ft 414 kts 306°
2026-04-16 10:05 52.35209 -4.23496 30043 ft 398 kts 306°
2026-04-16 10:05 52.38857 -4.29796 30011 ft 364 kts 305°
2026-04-16 10:06 52.42195 -4.35588 30018 ft 335 kts 304°
2026-04-16 10:06 52.45270 -4.40941 30045 ft 309 kts 303°
2026-04-16 10:06 52.48102 -4.45880 30023 ft 285 kts 303°
2026-04-16 10:06 52.50707 -4.50438 30006 ft 262 kts 302°
2026-04-16 10:07 52.53086 -4.54613 29985 ft 241 kts 301°
2026-04-16 10:07 52.55366 -4.58653 30078 ft 248 kts 301°
2026-04-16 10:07 52.57792 -4.62969 30136 ft 273 kts 302°
2026-04-16 10:07 52.60495 -4.67747 30126 ft 297 kts 303°
2026-04-16 10:08 52.66198 -4.77786 30013 ft 288 kts 303°
2026-04-16 10:08 52.68848 -4.82465 30021 ft 272 kts 302°
2026-04-16 10:08 52.71380 -4.86963 30031 ft 265 kts 302°
2026-04-16 10:09 52.73923 -4.91503 30075 ft 275 kts 302°
2026-04-16 10:09 52.75381 -4.94106 30067 ft 283 kts 302°
2026-04-16 10:09 52.76716 -4.96480 29972 ft 280 kts 302°
2026-04-16 10:09 52.78062 -4.98882 29164 ft 292 kts 303°
2026-04-16 10:10 52.79432 -5.01353 27924 ft 315 kts 303°
2026-04-16 10:10 52.80972 -5.04133 26861 ft 335 kts 304°
2026-04-16 10:10 52.82545 -5.06945 26324 ft 338 kts 305°
2026-04-16 10:10 52.84137 -5.09779 25959 ft 334 kts 305°
2026-04-16 10:11 52.85710 -5.12581 25612 ft 330 kts 305°
2026-04-16 10:11 52.87273 -5.15378 25216 ft 328 kts 305°
2026-04-16 10:11 52.88800 -5.18122 24807 ft 327 kts 305°
2026-04-16 10:11 52.90340 -5.20894 24501 ft 324 kts 305°
2026-04-16 10:12 52.91858 -5.23628 24034 ft 324 kts 305°
2026-04-16 10:12 52.93404 -5.26430 23271 ft 333 kts 305°
2026-04-16 10:12 52.94990 -5.29302 22447 ft 340 kts 305°
2026-04-16 10:12 52.96608 -5.32229 21655 ft 346 kts 306°
2026-04-16 10:13 52.98228 -5.35164 20892 ft 351 kts 306°
2026-04-16 10:13 52.99864 -5.38129 20141 ft 355 kts 306°
2026-04-16 10:13 53.01522 -5.41133 19407 ft 352 kts 306°
2026-04-16 10:13 53.03177 -5.44136 18672 ft 349 kts 306°
2026-04-16 10:14 53.04805 -5.47097 17909 ft 345 kts 306°
2026-04-16 10:14 53.06450 -5.49989 17089 ft 345 kts 311°
2026-04-16 10:14 53.08439 -5.52299 16314 ft 350 kts 322°
2026-04-16 10:14 53.10507 -5.54387 15553 ft 347 kts 322°
2026-04-16 10:15 53.12551 -5.56486 14828 ft 344 kts 322°
2026-04-16 10:15 53.14571 -5.58590 14100 ft 341 kts 322°
2026-04-16 10:15 53.16559 -5.60630 13340 ft 340 kts 327°
2026-04-16 10:15 53.18851 -5.61785 12528 ft 351 kts 349°
2026-04-16 10:16 53.21308 -5.61433 11766 ft 360 kts 11°
2026-04-16 10:16 53.23580 -5.59624 11014 ft 365 kts 32°
2026-04-16 10:16 53.25609 -5.57102 10311 ft 362 kts 35°
2026-04-16 10:16 53.27589 -5.54563 9688 ft 356 kts 35°
2026-04-16 10:17 53.29677 -5.52475 8996 ft 345 kts 15°
2026-04-16 10:17 53.31967 -5.51537 8380 ft 336 kts
2026-04-16 10:17 53.34257 -5.50750 7855 ft 336 kts
2026-04-16 10:17 53.36544 -5.49933 7354 ft 336 kts
2026-04-16 10:18 53.38774 -5.49112 7094 ft 328 kts
2026-04-16 10:18 53.40978 -5.48848 7006 ft 307 kts 348°
2026-04-16 10:18 53.43011 -5.49514 7000 ft 290 kts 343°
2026-04-16 10:18 53.44942 -5.50203 6990 ft 276 kts 343°
2026-04-16 10:19 53.46787 -5.50846 6990 ft 263 kts 343°
2026-04-16 10:19 53.48521 -5.51440 6985 ft 253 kts 343°
2026-04-16 10:19 53.50258 -5.52034 6993 ft 250 kts 343°
2026-04-16 10:19 53.51840 -5.52980 7004 ft 241 kts 320°
2026-04-16 10:20 53.53197 -5.54629 7014 ft 241 kts 318°
2026-04-16 10:20 53.54567 -5.56289 7017 ft 243 kts 318°
2026-04-16 10:20 53.55948 -5.57951 7012 ft 245 kts 319°
2026-04-16 10:20 53.57333 -5.59623 7006 ft 244 kts 315°
2026-04-16 10:21 53.58322 -5.61808 7002 ft 229 kts 284°
2026-04-16 10:21 53.58485 -5.64393 6936 ft 223 kts 257°
2026-04-16 10:21 53.57939 -5.66820 6720 ft 223 kts 235°
2026-04-16 10:21 53.56894 -5.68714 6511 ft 220 kts 221°
2026-04-16 10:22 53.55717 -5.70333 6282 ft 217 kts 219°
2026-04-16 10:22 53.54540 -5.71902 6067 ft 214 kts 219°
2026-04-16 10:22 53.53394 -5.73443 5853 ft 212 kts 220°
2026-04-16 10:22 53.52252 -5.74990 5651 ft 210 kts 220°
2026-04-16 10:23 53.51195 -5.76430 5463 ft 209 kts 220°
2026-04-16 10:23 53.50070 -5.77964 5272 ft 208 kts 220°
2026-04-16 10:23 53.48948 -5.79495 5064 ft 208 kts 220°
2026-04-16 10:23 53.47827 -5.81043 4861 ft 208 kts 223°
2026-04-16 10:24 53.46814 -5.82775 4660 ft 208 kts 227°
2026-04-16 10:24 53.45838 -5.84567 4462 ft 208 kts 227°
2026-04-16 10:24 53.44856 -5.86361 4259 ft 209 kts 227°
2026-04-16 10:24 53.43870 -5.88146 4057 ft 209 kts 227°
2026-04-16 10:25 53.42891 -5.89909 3875 ft 208 kts 227°
2026-04-16 10:25 53.41906 -5.91678 3668 ft 206 kts 227°
2026-04-16 10:25 53.40991 -5.93485 3518 ft 201 kts 242°
2026-04-16 10:25 53.40744 -5.95719 3512 ft 197 kts 265°
2026-04-16 10:26 53.40710 -5.98044 3345 ft 203 kts 265°
2026-04-16 10:26 53.40719 -6.00319 3096 ft 203 kts 270°
2026-04-16 10:26 53.40817 -6.02649 2847 ft 198 kts 271°
2026-04-16 10:26 53.40937 -6.04910 2581 ft 191 kts 272°
2026-04-16 10:27 53.41055 -6.07095 2322 ft 186 kts 271°
2026-04-16 10:27 53.41168 -6.09201 2066 ft 175 kts 271°
2026-04-16 10:27 53.41272 -6.11145 1868 ft 160 kts 271°
2026-04-16 10:27 53.41337 -6.12354 1742 ft 154 kts 270°
2026-04-16 10:28 53.41431 -6.14117 1534 ft 151 kts 270°
2026-04-16 10:28 53.41554 -6.16410 1264 ft 150 kts 270°
2026-04-16 10:28 53.41648 -6.18139 1049 ft 147 kts 272°
2026-04-16 10:28 53.41710 -6.19268 918 ft 140 kts 272°
2026-04-16 10:29 53.41802 -6.20845 707 ft 131 kts 274°
2026-04-16 10:29 53.41881 -6.22286 536 ft 124 kts 271°
2026-04-16 10:29 53.41954 -6.23773 391 ft 130 kts 274°
2026-04-16 10:29 53.42041 -6.25315 245 ft 134 kts 273°
2026-04-16 10:30 53.42121 -6.26825 216 ft 115 kts 276°
2026-04-16 10:30 53.42176 -6.27800 218 ft 53 kts 275°
2026-04-16 10:30 53.42211 -6.28132 219 ft 21 kts 294°
2026-04-16 10:30 53.42286 -6.28303 214 ft 17 kts 323°
2026-04-16 10:31 53.42372 -6.28255 216 ft 16 kts 82°
2026-04-16 10:31 53.42364 -6.28074 220 ft 15 kts 95°
2026-04-16 10:31 53.42354 -6.27900 213 ft 15 kts 95°
2026-04-16 10:31 53.42346 -6.27741 214 ft 14 kts 96°